User: anonymous   Login
Location: Plymouth
(43.7570°N, 71.6890°W)
Time: 20:05:25
(UTC-04:00)
Language:

Cosmos 2016 Rocket - Orbit

View from above orbital plane
View from above orbital plane
View from above satellite
View from above satellite

Ground track
Ground track

The orbit data is extracted from the following two-line orbital elements,

1 19922U 89028B   15188.57650376  .00000009  00000-0 -70226-5 0  9994
2 19922 082.9582 233.9026 0037897 076.8624 087.4335 13.77148756319429
Epoch (UTC): 07 July 2015 13:50:09
Eccentricity: 0.0037897
inclination: 82.9582°
perigee height: 946 km
apogee height: 1002 km
right ascension of ascending node: 233.9026°
argument of perigee: 76.8624°
revolutions per day: 13.77148756
mean anomaly at epoch: 87.4335°
orbit number at epoch: 31942

The dashed part of the orbit path shows where the satellite is in the earth's shadow,  

DLR